Regional Weather Roundup
Issued by NWS State College, PA

Home | Current Version | Previous Version | Graphics & Text | Print | Product List | Glossary Off
Versions: 1 2 3 4 5 6 7 8 9 10 11 12 13 14 15 16 17 18 19 20 21 22 23 24 25 26 27 28 29 30 31 32 33 34 35 36 37 38 39 40 41 42 43 44 45 46 47 48 49 50

000
ASUS41 KCTP 220803
RWRCTP

REGIONAL WEATHER ROUNDUP
NATIONAL WEATHER SERVICE STATE COLLEGE PA
300 AM EST SAT NOV 22 2014

Note: "fair" indicates few or no clouds below 12,000 feet with no
significant weather and/or obstructions to visibility.

* = STATION THAT DOES NOT REPORT PRECIPITATION /E.G. RAIN...SNOW...ETC/
    THUNDER OR FOG.

PAZ002>004-007>009-013>016-020>023-029>032-220900-
WESTERN PENNSYLVANIA

CITY           SKY/WX    TMP DP  RH WIND       PRES   REMARKS
ERIE           PTCLDY    24   8  50 S17G24    30.36F WCI  11
MEADVILLE      MOCLDY    18   7  62 S8        30.34F WCI   8
FRANKLIN*      MOCLDY    16   5  62 S10       30.37S WCI   3
NEW CASTLE       N/A     13   8  80 CALM      30.39F
BEAVER COUNTY  NOT AVBL
BUTLER*        PTCLDY    18   9  68 SE3       30.40F
PITTSBURGH INT PTCLDY    16   9  74 CALM      30.39F
PITTSBURGH     PTCLDY    17  10  74 S7        30.39F WCI   8
INDIANA*       CLEAR     12   9  85 CALM      30.45R
LATROBE        PTCLDY    14  10  85 CALM      30.44S
WASHINGTON CO* PTCLDY    12   7  79 CALM      30.40F
$$

PAZ004>006-010>012-017>019-024>028-033>037-041-042-045-046-049>053-220900-
CENTRAL PENNSYLVANIA

CITY           SKY/WX    TMP DP  RH WIND       PRES   REMARKS
BRADFORD       PTCLDY    15   6  67 SW7       30.31  WCI   5
DUBOIS         PTCLDY    14   7  73 S3        30.36R
CLEARFIELD     PTCLDY    10   6  84 CALM      30.40S
JOHNSTOWN      PTCLDY    20   6  55 SW10      30.35R WCI   9
ALTOONA        PTCLDY    17   9  70 SW3       30.42R
STATE COLLEGE  PTCLDY    15   9  76 SW3       30.43R
WILLIAMSPORT   PTCLDY    16  10  77 CALM      30.47F
SELINSGROVE    CLEAR     15  11  83 CALM      30.49F
FT INDIANTOWN  CLEAR     19  10  68 W3        30.49F
CAPITAL CITY   CLEAR     18  11  74 SW3       30.51S
HARRISBURG     CLEAR     20  13  74 CALM      30.50F
YORK           CLEAR     14  10  84 CALM      30.51R
$$

PAZ038>040-043-044-047-048-054-055-060>062-067>071-220900-
EASTERN PENNSYLVANIA

CITY           SKY/WX    TMP DP  RH WIND       PRES   REMARKS
SCRANTON       CLEAR     21  10  62 SW5       30.42S WCI  15
MOUNT POCONO   CLEAR     16   8  71 W7        30.35F WCI   6
ALLENTOWN      CLEAR     16   8  71 SW6       30.49S WCI   7
QUAKERTOWN*    SUNNY     16  10  79 CALM      30.49S
READING        CLEAR     22  12  65 CALM      30.48F
LANCASTER      CLEAR     19  11  70 W5        30.51S WCI  12
COATESVILLE    SUNNY     23  10  58 CALM      30.49S
POTTSTOWN      CLEAR     18  11  74 CALM      30.51F
BLUE BELL      CLEAR     21  18  86 CALM      30.49F
DOYLESTOWN     CLEAR     20  11  68 CALM      30.48F
WILLOW GROVE   NOT AVBL
NORTH PHILA    CLEAR     25  10  53 CALM      30.53F
PHILADELPHIA   CLEAR     25  10  53 W6        30.54F
$$


USA.gov is the U.S. government's official web portal to all federal, state and local government web resources and services.